Tracking 23099 objects as of 14-May-2021
HD Live streaming from Space Station
objects crossing your sky now

STARLINK-2004

Track STARLINK-2004 now!
10-day predictions
STARLINK-2004 is classified as:


NORAD ID: 47599
Int'l Code: 2021-009BD
Perigee: 383.8 km
Apogee: 389.4 km
Inclination: 53.1 °
Period: 92.1 minutes
Semi major axis: 6757 km
RCS: Unknown
Launch date: February 4, 2021
Source: United States (US)
Launch site: AIR FORCE EASTERN TEST RANGE (AFETR)
aabbcc
Your satellite tracking list
Your tracking list is empty




NASA's NSSDC Master Catalog

Two Line Element Set (TLE):
1 47599U 21009BD  21133.91667824 -.00104542  00000-0 -11465-2 0  9996
2 47599  53.0532   1.0079 0004165   3.6449  30.3572 15.62831272 16074
Source of the keplerian elements: AFSPC